free web tracker

Jackpot

Texas Poker Multi Jackpot System

Kini Telah hadir Jackpot SUPER ROYAL FLUSH

Kini Telah hadir Jackpot 2000 (khusus table VIP keatas).

Ikutilah global jackpot yang tersedia di system kami, dengan system jackpot terbaru dan pertama di indonesia, anda dapat membeli jackpot dengan harga 100 rupiah saja dan menangkan hadiahnya hingga puluhan juta rupiah.

Jackpot bukanlah suatu keharusan untuk dibeli, namun kami memberikan suatu fitur tambahan untuk member tercinta dari www.clubpokeronline.com.

Terdapat tiga pilihan harga jackpot yang bisa anda beli yaitu :100,500,1000 dan 2000(khusus table VIP Keatas) rupiah.

Hadiah dari Multi jackpot system www.clubpokeronline.com

  1. full house x 10 harga jackpot yang anda beli.
      (contoh:anda membeli 1000 maka:1000 X10 = 10.000)
  2. four of kind x 250 harga jackpot yang anda beli
      (contoh:anda membeli 1000 maka:1000 X250 = 250.000)
  3. Straight flush x 1200
      (contoh:anda membeli 1000 maka:1000 X1200 = 1.200.000)
  4. Royal flush x 10000 harga jackpot yang anda beli
      (contoh:anda membeli 1000 maka:1000 X10000 = 10.000.000)
  5. SUPER ROYAL FLUSH x 30000 harga jackpot yang anda beli
      (contoh:anda membeli 1000 maka:1000 X30000 = 30.000.000)

Kondisi kartu

  1. full house adalah kondisi kartu dimana kartu anda dan kartu tengah dengan total 7 kartu bisa mendapatkan nilai 5 kartu dengan kombinasi 1 tris(three of kind) dan 1 pair, contoh 3 kartu 10 dan 2 kartu 5
  2. Four of kind adalah kondisi kartu dimana kartu anda dan kartu tengah dengan total 7 kartu bisa mendapatkan nilai 5 kartu dengan kombinasi 4 kartu yang sama jumlah dan 1 kartu apapun juga contoh anda mendapatkan 4 buah kartu angka 3 dan 1 kartu apapun.
  3. Staright flush adalah kondisi kartu dimana kartu anda dan kartu tengah dengan total 7 kartu bisa mendapatkan nilai 5 kartu dengan kombinasi seri / staright dengan kembang yang sama contoh : urutan kartu dari angka 5, 6, 7, 8 , 9 10 dengan kembang yg sama misalnya as hati
  4. Royal flush adalah kondisi kartu dimana kartu anda dan kartu tengah dengan total 7 kartu bisa mendapatkan nilai 5 kartu dengan kombinasi seri / staright dengan kembang yang sama tetapi kartu tersebut haruslah dimulai dari 10. contoh 10, Queen, Jack, King dan aces dengan kembang yang sama
  5. Super Royal flush adalah kondisi kartu dimana Kedua kartu anda digabung dengan 3 kartu pertama meja haruslah royal flush. contoh kartu anda 10,Queen kembang sama dan 3 kartu pertama meja adalah Jack, King dan aces dengan kembang yang sama

Demikian adalah penjelasan dari Multi Jackpot www.clubpokeronline.com terima kasih dan selamat bermain salam hoki dari kami

Texas Poker Jackpot Winner

TOP SUPER ROYAL FLUSH
No.TanggalNamaPriceWin
120/05 21:18QIPRU999Super Royal flush3,000,000
220/05 21:13DOLLLARSuper Royal flush3,000,000
320/05 21:13AGUS0879Super Royal flush3,000,000
420/05 20:12HALIK17Super Royal flush15,000,000
520/05 19:58BAUMSONGSuper Royal flush15,000,000
TOP ROYAL FLUSH
No.TanggalNamaPriceWin
120/05 22:24JAW_Royal flush2,000,000
220/05 22:15TEBO15Royal flush5,000,000
320/05 21:51SERLLY45Royal flush2,000,000
420/05 21:50AQSTREG22Royal flush2,000,000
520/05 21:41GENGGONGSSRoyal flush10,000,000
TOP STRAIGHT FLUSH
No.TanggalNamaPriceWin
120/05 22:29ZENNIJ155Straight Flush240,000
220/05 22:28RHLL03Straight Flush1,200,000
320/05 22:27JAGER501Straight Flush600,000
420/05 22:27TELEK16Straight Flush240,000
520/05 22:26EBF03FDDStraight Flush600,000
LATEST JACKPOT
No.TanggalNamaPriceWin
120/05 22:30HEAVENNFull House1,000
220/05 22:30ANDA44Four Of A Kind250,000
320/05 22:30D4DY4B088Full House2,000
420/05 22:30C4C1NG212Four Of A Kind50,000
520/05 22:30NYOBY81Full House1,000
620/05 22:30QG1CAR2SA2Full House5,000
720/05 22:30ARFAREZKIFull House10,000
820/05 22:30NAPZA18Full House10,000
920/05 22:30AERENLEWWFull House1,000
1020/05 22:30DN40000038Full House2,000
1120/05 22:30BONCRUT88Full House2,000
1220/05 22:30Y2VTCP9H27Full House5,000
1320/05 22:30T32Y46RQI9Full House2,000
1420/05 22:30TOMI81Full House2,000
1520/05 22:30LENGO303Full House2,000
1620/05 22:30C8761E74Four Of A Kind125,000
1720/05 22:30YOHANN007Full House20,000
1820/05 22:30NE792EI37PFull House5,000
1920/05 22:30JUAHNDSG76Full House1,000
2020/05 22:30HOCYCUH66Full House2,000
2120/05 22:30MIXMAX086Full House5,000
2220/05 22:30MERBES88Full House20,000
2320/05 22:30AQYDM7GCGZFull House5,000
2420/05 22:30NUROTO69Full House1,000
2520/05 22:30KRGG2XFull House1,000
2620/05 22:30MARSATOASAFull House10,000
2720/05 22:30ADF48426Full House2,000
2820/05 22:30R2R2Full House2,000
2920/05 22:30SETIYADI27Full House2,000
3020/05 22:30L4WLAWFull House20,000
3120/05 22:30TAJIR66666Full House2,000
3220/05 22:30RAWIT80Full House20,000
3320/05 22:30BANNGFull House2,000
3420/05 22:30AHONKCELLFull House10,000
3520/05 22:30AE9XAH6YKDFull House2,000
3620/05 22:30TEMPIK01Full House2,000
3720/05 22:30GALARDO270Four Of A Kind125,000
3820/05 22:30MAGADON666Full House5,000
3920/05 22:30T4DKHENTUNK09Full House2,000
4020/05 22:30KROMOSON88Full House2,000
4120/05 22:30WASWAS19Full House5,000
4220/05 22:30KECIL222Full House10,000
4320/05 22:30HUDI99Full House2,000
4420/05 22:30P4CY777Full House2,000
4520/05 22:30SISIL378Full House2,000
4620/05 22:30YEDSFull House10,000
4720/05 22:30DRA86Full House2,000
4820/05 22:30BEWEDFull House10,000
4920/05 22:30PORTUNE97Full House10,000
5020/05 22:30TOPYANFull House10,000

Domino Multi Jackpot System

Ikutilah global jackpot yang tersedia di system kami, dengan system jackpot terbaru dan pertama di indonesia, anda dapat membeli jackpot dengan harga 100 rupiah saja dan menangkan hadiahnya hingga puluhan juta rupiah.

Jackpot bukanlah suatu keharusan untuk dibeli, namun kami memberikan suatu fitur tambahan untuk member tercinta dari www.clubpokeronline.com.

Terdapat tiga pilihan harga jackpot yang bisa anda beli yaitu :100,500 dan 1000 rupiah.

Hadiah dari Multi jackpot system www.clubpokeronline.com

  1. Murni Kecil x 50 harga jackpot yang anda beli.
      (contoh:anda membeli 1000 maka:1000 X 50 = 50.000)
  2. Murni Besar x 50 harga jackpot yang anda beli
      (contoh:anda membeli 1000 maka:1000 X 50 = 50.000)
  3. BALAK x 100 harga jackpot yang anda beli
      (contoh:anda membeli 1000 maka:1000 X 100 = 100.000)
  4. ENAM DEWA x 6666 harga jackpot yang anda beli
      (contoh:anda membeli 1000 maka:1000 X 6666 = 6.666.000)

Demikian adalah penjelasan dari Multi Jackpot www.clubpokeronline.com terima kasih dan selamat bermain salam hoki dari kami

Domino Jackpot Winner

TOP ENAM DEWA
No.TanggalNamaPriceWin
120/05 21:38DANKJE99murni enam6,666,000
220/05 21:33TNB2KYHFNEmurni enam3,333,000
320/05 20:59JEBRAG03murni enam6,666,000
420/05 20:01KIIHO0101murni enam3,333,000
520/05 15:10HAYUT01murni enam3,333,000
TOP BALAK
No.TanggalNamaPriceWin
120/05 22:28OBC7187balak100,000
220/05 22:28OSIN16balak50,000
320/05 22:2722122balak100,000
420/05 22:26VR8QF3YTBMbalak10,000
520/05 22:25QUINZA11balak10,000
LATEST JACKPOT
No.TanggalNamaPriceWin
120/05 22:30SURENTU16murni kecil5,000
220/05 22:29GOLEM999murni besar50,000
320/05 22:28OBC7187balak100,000
420/05 22:28KRIZCAFEmurni besar50,000
520/05 22:28OSIN16balak50,000
620/05 22:27ODAN18murni kecil50,000
720/05 22:2722122balak100,000
820/05 22:27MERAH66murni besar5,000
920/05 22:27QIANZI41murni besar25,000
1020/05 22:27MD77MAX8murni kecil25,000
1120/05 22:26VR8QF3YTBMbalak10,000
1220/05 22:26AB2466KLmurni besar5,000
1320/05 22:25IRWIN043murni kecil50,000
1420/05 22:25EMOT24murni besar50,000
1520/05 22:25QUINZA11balak10,000
1620/05 22:25DM82997murni besar25,000
1720/05 22:25EWEAN77murni besar25,000
1820/05 22:24KIIHO0101murni besar25,000
1920/05 22:24BEJO4994murni kecil50,000
2020/05 22:24LEPONG11murni besar50,000
2120/05 22:24SOLONG85murni besar25,000
2220/05 22:24B0FCQGZFU8murni kecil50,000
2320/05 22:24ASMAR07murni kecil50,000
2420/05 22:24KIIHO0101balak50,000
2520/05 22:23GUNZZZ29murni kecil50,000
2620/05 22:23SEWEmurni kecil5,000
2720/05 22:22ALANG13murni kecil5,000
2820/05 22:22CAIR00murni besar5,000
2920/05 22:22AS412murni besar5,000
3020/05 22:22ANINDYAH66balak100,000
3120/05 22:21UTIN82murni besar25,000
3220/05 22:21ASMARA81murni besar50,000
3320/05 22:20GALAH333murni besar50,000
3420/05 22:20AWAN_FYLOYmurni kecil50,000
3520/05 22:20DHINC123lucky9925,000
3620/05 22:20ULAI99balak50,000
3720/05 22:19AGENT88556lucky992,500
3820/05 22:19TROJANmurni besar50,000
3920/05 22:19AWENERYlucky9925,000
4020/05 22:19CAPIE89balak100,000
4120/05 22:18MENO20murni besar50,000
4220/05 22:18MEMO321murni kecil5,000
4320/05 22:17SERDA66murni kecil5,000
4420/05 22:17SPGHIbalak100,000
4520/05 22:16KAFUR31murni besar5,000
4620/05 22:15BALENO2002murni besar50,000
4720/05 22:15YUNI089murni kecil50,000
4820/05 22:15UTIN82murni besar25,000
4920/05 22:14GLOBE300murni kecil50,000
5020/05 22:13HAMPURA11murni kecil25,000

Ceme Multi Jackpot System

Jackpot dilihat dari gabungan kartu pemain dengan kartu bandar. Bandar harus membeli jackpot sebanyak jumlah player yang sedang duduk. Sebagai contoh bila terdapat 3 pemain duduk bermain, dan bandar memutuskan untuk membeli jackpot Rp 1.000, maka pada periode tersebut bandar akan membeli jackpot sebanyak 3xRp1.000 = Rp3.000.

Jackpot bukanlah suatu keharusan untuk dibeli, namun kami memberikan suatu fitur tambahan untuk member tercinta dari www.clubpokeronline.com.

Terdapat tiga pilihan harga jackpot yang bisa anda beli yaitu :100,500 dan 1000 rupiah.

Hadiah dari Multi jackpot system www.clubpokeronline.com

  1. Murni Kecil x 50 harga jackpot yang anda beli.
      (contoh:anda membeli 1000 maka:1000 X 50 = 50.000)
  2. Murni Besar x 50 harga jackpot yang anda beli
      (contoh:anda membeli 1000 maka:1000 X 50 = 50.000)
  3. BALAK x 200 harga jackpot yang anda beli
      (contoh:anda membeli 1000 maka:1000 X 200 = 200.000)
  4. ENAM DEWA x 6666 harga jackpot yang anda beli
      (contoh:anda membeli 1000 maka:1000 X 6666 = 6.666.000)

Demikian adalah penjelasan dari Multi Jackpot www.clubpokeronline.com terima kasih dan selamat bermain salam hoki dari kami

Ceme Jackpot Winner

TOP ENAM DEWA
No.TanggalNamaPriceWin
120/05 22:29TIAPUTRImurni enam666,600
220/05 22:29VBALACHEmurni enam666,600
320/05 22:11AAKHAFWE84murni enam6,666,000
420/05 21:50BEVERLY009murni enam3,333,000
520/05 21:50MAIL5758murni enam3,333,000
TOP BALAK
No.TanggalNamaPriceWin
120/05 22:30OKYSURYAbalak100,000
220/05 22:30WADDUDbalak20,000
320/05 22:30PALASARI2balak200,000
420/05 22:29XASENG841balak200,000
520/05 22:29DEANR83balak200,000
LATEST JACKPOT
No.TanggalNamaPriceWin
120/05 22:30BSANTO08murni kecil50,000
220/05 22:30HERBALmurni kecil50,000
320/05 22:30NAPI0811murni besar5,000
420/05 22:30ARIEBAGUS9murni besar50,000
520/05 22:30SYAMS123murni kecil50,000
620/05 22:30WXZ6VSKZ3Omurni besar5,000
720/05 22:30WXZ6VSKZ3Omurni besar5,000
820/05 22:30INDAHFSmurni besar50,000
920/05 22:30AGUAN999murni besar50,000
1020/05 22:30TOJAN88murni kecil50,000
1120/05 22:30SUNGU99murni kecil50,000
1220/05 22:30JPSEL4LUmurni besar50,000
1320/05 22:30OKYSURYAbalak100,000
1420/05 22:30WADDUDbalak20,000
1520/05 22:30MARBOEN7murni besar5,000
1620/05 22:30COWOMANJAmurni kecil50,000
1720/05 22:30LH7UZLCYDRmurni kecil5,000
1820/05 22:30PALASARI2balak200,000
1920/05 22:29BASTIAN_09murni kecil25,000
2020/05 22:29INGGATmurni kecil5,000
2120/05 22:29SEKSIQQmurni kecil25,000
2220/05 22:29IDUTEAmurni besar50,000
2320/05 22:29XASENG841balak200,000
2420/05 22:29TIAPUTRImurni enam666,600
2520/05 22:29VBALACHEmurni enam666,600
2620/05 22:29RDW19murni kecil50,000
2720/05 22:29BAGUSKRISTmurni kecil50,000
2820/05 22:29GUNDUL8989murni kecil50,000
2920/05 22:29YODASIJA01murni kecil50,000
3020/05 22:29GUNDUL8989murni kecil50,000
3120/05 22:29DEANR83balak200,000
3220/05 22:29BIBOY01balak20,000
3320/05 22:29DWBTG88957balak20,000
3420/05 22:29MEMO66murni kecil50,000
3520/05 22:29JAG0999murni besar50,000
3620/05 22:29ANDHI91murni kecil50,000
3720/05 22:28BEDUTLmurni besar5,000
3820/05 22:28BORAT189murni besar5,000
3920/05 22:28M4NYU_92murni besar50,000
4020/05 22:28LDDAKA16murni besar25,000
4120/05 22:28EEERmurni kecil50,000
4220/05 22:28REZENGRAISmurni kecil5,000
4320/05 22:28OJOSER90murni kecil50,000
4420/05 22:28BZJ9CUD1DSmurni kecil50,000
4520/05 22:28AGUN1195balak200,000
4620/05 22:28SUPARM4ANmurni kecil50,000
4720/05 22:28MASTERPK8Xmurni kecil50,000
4820/05 22:28OBI68murni kecil50,000
4920/05 22:28POHOIDmurni besar50,000
5020/05 22:28BVCKmurni kecil25,000